TimePDT,TemperatureF,Dew PointF,Humidity,Sea Level PressureIn,VisibilityMPH,Wind Direction,Wind SpeedMPH,Gust SpeedMPH,PrecipitationIn,Events,Conditions,WindDirDegrees,DateUTC
12:53 AM,55.9,36.0,47,30.26,10.0,North,13.8,-,N/A,,Clear,350,2013-05-04 07:53:00
1:53 AM,55.9,36.0,47,30.25,10.0,North,12.7,-,N/A,,Clear,350,2013-05-04 08:53:00
2:53 AM,51.1,34.0,52,30.28,10.0,Calm,Calm,-,N/A,,Clear,0,2013-05-04 09:53:00
3:53 AM,53.1,35.1,50,30.27,10.0,NNW,5.8,-,N/A,,Clear,340,2013-05-04 10:53:00
4:53 AM,48.9,35.1,59,30.29,10.0,NNW,9.2,-,N/A,,Clear,330,2013-05-04 11:53:00
5:53 AM,46.9,35.1,63,30.31,10.0,NW,5.8,-,N/A,,Clear,310,2013-05-04 12:53:00
6:53 AM,51.1,35.1,54,30.32,10.0,NNW,9.2,-,N/A,,Clear,330,2013-05-04 13:53:00
7:53 AM,55.0,37.0,51,30.32,10.0,NW,10.4,-,N/A,,Clear,320,2013-05-04 14:53:00
8:53 AM,61.0,37.0,41,30.31,10.0,North,15.0,20.7,N/A,,Clear,10,2013-05-04 15:53:00
9:53 AM,66.0,37.9,36,30.30,10.0,North,17.3,21.9,N/A,,Clear,10,2013-05-04 16:53:00
10:53 AM,69.1,37.0,31,30.27,10.0,North,11.5,19.6,N/A,,Clear,10,2013-05-04 17:53:00
11:53 AM,73.0,37.9,28,30.24,10.0,North,8.1,18.4,N/A,,Clear,360,2013-05-04 18:53:00
12:53 PM,75.0,37.0,25,30.20,10.0,North,9.2,17.3,N/A,,Clear,10,2013-05-04 19:53:00
1:53 PM,77.0,36.0,23,30.17,10.0,NNE,15.0,20.7,N/A,,Clear,20,2013-05-04 20:53:00
2:53 PM,77.0,35.1,22,30.15,10.0,North,12.7,20.7,N/A,,Clear,350,2013-05-04 21:53:00
3:53 PM,78.1,35.1,21,30.12,10.0,North,15.0,21.9,N/A,,Clear,350,2013-05-04 22:53:00
4:53 PM,77.0,36.0,23,30.10,10.0,NW,9.2,24.2,N/A,,Clear,310,2013-05-04 23:53:00
5:53 PM,77.0,34.0,21,30.07,10.0,NNW,10.4,17.3,N/A,,Clear,340,2013-05-05 00:53:00
6:53 PM,75.9,35.1,23,30.05,10.0,North,9.2,17.3,N/A,,Clear,360,2013-05-05 01:53:00
7:53 PM,66.9,39.0,36,30.05,10.0,North,8.1,-,N/A,,Clear,350,2013-05-05 02:53:00
8:53 PM,57.0,39.0,51,30.06,10.0,North,6.9,-,N/A,,Clear,350,2013-05-05 03:53:00
9:53 PM,57.0,37.0,47,30.06,10.0,WNW,8.1,-,N/A,,Clear,300,2013-05-05 04:53:00
10:53 PM,55.0,34.0,45,30.07,10.0,West,3.5,-,N/A,,Clear,260,2013-05-05 05:53:00
11:53 PM,55.0,33.1,43,30.07,10.0,Calm,Calm,-,N/A,,Clear,0,2013-05-05 06:53:00